This demonstration page uses our WeatherBlox Daily Observations layout. Learn more.

Left ArrowRight Arrow

Hourly Observations for March 26, 2015

Temp ( °F °C ) Dew Point ( °F °C ) Humidity (%) Winds ( mph kmh ) Pressure ( in mb ) Visibility ( mi km ) Precip ( " mm )
12:53 am 00:53 Clear 61 16.1 49 9.4 65 65 NW 5 7 30.14 1021 10 16 0.00 0.00
1:53 am 01:53 Clear 62 16.7 48 8.9 60 60 NW 5 7 30.13 1020 10 16 0.00 0.00
2:53 am 02:53 Clear 60 15.6 48 8.9 65 65 NNW 6 9 30.13 1020 10 16 0.00 0.00
3:53 am 03:53 Clear 62 16.7 48 8.9 60 60 NNW 7 11 30.12 1020 10 16 0.00 0.00
4:53 am 04:53 Clear 54 12.2 48 8.9 80 80 W 3 6 30.13 1020 10 16 0.00 0.00
5:53 am 05:53 Clear 52 11.1 47 8.3 83 83 Calm 30.14 1021 10 16 0.00 0.00
6:53 am 06:53 Clear 51 10.6 46 7.8 83 83 Calm 30.14 1021 10 16 0.00 0.00
7:53 am 07:53 Sunny 53 11.7 48 8.9 83 83 Calm 30.15 1021 10 16 0.00 0.00
8:53 am 08:53 Sunny 59 15 51 10.6 75 75 Calm 30.15 1021 10 16 0.00 0.00
9:53 am 09:53 Sunny 64 17.8 54 12.2 70 70 SSE 6 9 30.16 1021 10 16 0.00 0.00
10:53 am 10:53 Sunny 68 20 52 11.1 57 57 S 5 7 30.16 1022 10 16 0.00 0.00
11:53 am 11:53 Sunny 73 22.8 52 11.1 48 48 VRB 3 6 30.15 1021 10 16 0.00 0.00
12:53 pm 12:53 Sunny 77 25 50 10 39 39 Calm 30.14 1021 10 16 0.00 0.00
1:53 pm 13:53 Sunny 79 26.1 50 10 36 36 VRB 5 7 30.11 1020 10 16 0.00 0.00
2:53 pm 14:53 Sunny 81 27.2 46 7.8 29 29 SE 6 9 30.09 1019 10 16 0.00 0.00
3:53 pm 15:53 Sunny 82 27.8 48 8.9 31 31 ENE 5 7 30.07 1018 10 16 0.00 0.00
4:53 pm 16:53 Sunny 82 27.8 47 8.3 29 29 E 5 7 30.06 1018 10 16 0.00 0.00
5:53 pm 17:53 Sunny 81 27.2 47 8.3 30 30 SSE 3 6 30.05 1018 10 16 0.00 0.00
6:53 pm 18:53 Sunny 79 26.1 49 9.4 35 35 Calm 30.04 1017 10 16 0.00 0.00
7:53 pm 19:53 Clear 73 22.8 52 11.1 48 48 Calm 30.05 1018 10 16 0.00 0.00
8:53 pm 20:53 Clear 66 18.9 53 11.7 63 63 Calm 30.06 1018 10 16 0.00 0.00
9:53 pm 21:53 Clear 62 16.7 52 11.1 70 70 NNE 5 7 30.09 1019 10 16 0.00 0.00
10:53 pm 22:53 Clear 61 16.1 51 10.6 70 70 Calm 30.09 1019 10 16 0.00 0.00
11:53 pm 23:53 Clear 58 14.4 50 10 75 75 NNW 3 6 30.10 1019 10 16 0.00 0.00

Powered by AerisWeather